Regional Weather Roundup
Issued by NWS Kansas City/Pleasant Hill, MO

Home | Current Version | Previous Version | Text Only | Print | Product List | Glossary On
Versions: 1 2 3 4 5 6 7 8 9 10 11 12 13 14 15 16 17 18 19 20 21 22 23 24 25 26 27 28 29 30 31 32 33 34 35 36 37 38 39 40 41 42 43 44 45 46 47 48 49 50
470
ASUS43 KEAX 232010
RWREAX

WEATHER ROUNDUP FOR EASTERN KANSAS AND NORTHWEST MISSOURI
NATIONAL WEATHER SERVICE KANSAS CITY/PLEASANT HILL MO
300 PM CDT SAT SEP 23 2017

KSZ040-057-103>105-MOZ028-029-037-043-232100-
...KANSAS CITY METROPOLITAN AREA...

CITY           SKY/WX    TMP DP  RH WIND       PRES   REMARKS
K.C. INTL      MOSUNNY   88  68  51 S12       29.99F HX  91
K.C. DOWNTOWN  MOSUNNY   91  69  48 S10G18    29.97F HX  96
LEES SUMMIT    MOSUNNY   89  68  49 S9        30.00F HX  93
OLATHE - IXD   MOSUNNY   88  68  51 S10       29.99F HX  91
OLATHE - OJC   MOSUNNY   86  68  54 S10       29.99F
LAWRENCE       MOSUNNY   90  69  50 S12       29.96F HX  94

$$

MOZ001>008-011>017-020>025-030>033-038>040-044>046-053-054-232100-
...NORTHERN AND CENTRAL MISSOURI...

CITY           SKY/WX    TMP DP  RH WIND       PRES   REMARKS
ST. JOSEPH     MOSUNNY   91  68  46 S9        29.96F HX  95
MOSBY          PTCLDY    90  63  40 S9        29.98F HX  90
WARRENSBURG    MOSUNNY   86  66  51 SE9       30.00F
WHITEMAN AFB   MOSUNNY   85  70  60 SE3       29.99F HX  90
CLINTON        MOSUNNY   90  68  48 S6        30.00F HX  93
SEDALIA        SUNNY     92  69  47 S8        30.01F HX  97
WARSAW         NOT AVBL
CHILLICOTHE      N/A     90  67  46 VRB6      29.99F HX  93
KIRKSVILLE     MOSUNNY   92  63  38 VRB6      30.01F HX  93

$$

MOZ041-047>049-056>058-063>065-088>090-097-232100-
...EASTERN AND SOUTHERN MISSOURI...

CITY           SKY/WX    TMP DP  RH WIND       PRES   REMARKS
ST. LOUIS INTL MOSUNNY   91  62  37 SE7       30.03F HX  91
SPIRIT OF STL  MOSUNNY   91  66  43 E7        30.00F HX  93
COLUMBIA       SUNNY     90  64  42 SE7       30.02F HX  91
JEFFERSON CITY SUNNY     91  66  43 SE3       29.99F HX  93
ROLLA          SUNNY     91  61  36 CALM      30.03F HX  91
OSAGE BEACH    PTSUNNY   90  66  45 E5        30.01  HX  92
SPRINGFIELD    MOSUNNY   90  61  37 VRB3      30.00F HX  90
BRANSON        MOSUNNY   90  59  35 E12       30.02F
JOPLIN         MOSUNNY   88  64  44 SE6       29.99F
WEST PLAINS    SUNNY     90  60  36 E9        30.04F

$$

IAZ060-094-KSZ022-034>040-054-083-096-NEZ052-066-093-232100-
...KANSAS...SOUTHEAST NEBRASKA AND IOWA...

CITY           SKY/WX    TMP DP  RH WIND       PRES   REMARKS
TOPEKA         MOSUNNY   90  68  48 SE13G21   29.95F HX  94
MANHATTAN      MOSUNNY   92  63  38 S15       29.92F HX  93
EMPORIA        SUNNY     88  64  44 S14G24    29.96F
CHANUTE        SUNNY     88  66  48 SE13      29.97F HX  90
WICHITA        MOSUNNY   89  64  43 SE16G25   29.92F HX  90
OMAHA          PTSUNNY   91  65  41 SE21G29   29.91F HX  93
LINCOLN        SUNNY     92  65  40 S18G26    29.89F HX  94
FALLS CITY     SUNNY     90  62  39 S15G24    29.94F HX  90
LAMONI         MOSUNNY   90  65  43 S13       29.99F HX  92
DES MOINES     MOSUNNY   92  64  39 S13       29.96F HX  93

$$





USA.gov is the U.S. government's official web portal to all federal, state and local government web resources and services.